TimeEST,TemperatureF,Dew PointF,Humidity,Sea Level PressureIn,VisibilityMPH,Wind Direction,Wind SpeedMPH,Gust SpeedMPH,PrecipitationIn,Events,Conditions,WindDirDegrees,DateUTC
12:14 AM,35.6,28.6,76,30.38,10.0,SE,5.8,-,N/A,,Clear,140,2012-11-19 05:14:00
12:34 AM,34.7,28.9,79,30.37,10.0,SE,5.8,-,N/A,,Clear,130,2012-11-19 05:34:00
12:54 AM,34.0,28.2,79,30.37,10.0,SE,5.8,-,N/A,,Clear,130,2012-11-19 05:54:00
1:14 AM,34.5,28.2,78,30.37,10.0,SE,5.8,-,N/A,,Clear,130,2012-11-19 06:14:00
1:34 AM,34.9,28.4,77,30.37,10.0,Calm,Calm,-,N/A,,Clear,0,2012-11-19 06:34:00
1:54 AM,35.8,28.8,76,30.36,10.0,Calm,Calm,-,N/A,,Clear,0,2012-11-19 06:54:00
2:14 AM,33.4,28.9,84,30.36,10.0,SSE,3.5,-,N/A,,Clear,150,2012-11-19 07:14:00
2:34 AM,31.8,28.0,86,30.36,10.0,SE,3.5,-,N/A,,Clear,130,2012-11-19 07:34:00
2:54 AM,32.0,28.0,85,30.36,10.0,SE,4.6,-,N/A,,Clear,130,2012-11-19 07:54:00
3:14 AM,31.1,27.5,87,30.36,10.0,ESE,3.5,-,N/A,,Clear,120,2012-11-19 08:14:00
3:34 AM,31.5,28.0,87,30.35,10.0,SE,4.6,-,N/A,,Clear,130,2012-11-19 08:34:00
3:54 AM,31.6,29.3,91,30.34,7.0,SE,4.6,-,N/A,,Clear,130,2012-11-19 08:54:00
4:14 AM,30.4,28.0,91,30.34,7.0,Calm,Calm,-,N/A,,Clear,0,2012-11-19 09:14:00
4:34 AM,30.4,27.9,90,30.34,7.0,ESE,3.5,-,N/A,,Clear,120,2012-11-19 09:34:00
4:54 AM,29.3,27.7,94,30.34,5.0,Calm,Calm,-,N/A,,Clear,0,2012-11-19 09:54:00
5:14 AM,29.8,28.6,95,30.34,5.0,Calm,Calm,-,N/A,,Clear,0,2012-11-19 10:14:00
5:34 AM,30.7,28.8,92,30.34,5.0,ESE,4.6,-,N/A,,Clear,110,2012-11-19 10:34:00
5:54 AM,28.4,27.1,95,30.34,5.0,East,4.6,-,N/A,,Clear,100,2012-11-19 10:54:00
6:14 AM,29.7,28.2,94,30.34,5.0,ESE,4.6,-,N/A,,Clear,110,2012-11-19 11:14:00
6:34 AM,29.3,27.9,94,30.34,4.0,ESE,4.6,-,N/A,,Clear,110,2012-11-19 11:34:00
6:54 AM,28.0,27.0,96,30.33,5.0,ESE,5.8,-,N/A,,Clear,120,2012-11-19 11:54:00
7:14 AM,29.1,28.0,96,30.33,4.0,ESE,4.6,-,N/A,,Clear,110,2012-11-19 12:14:00
7:34 AM,30.0,28.8,95,30.32,3.0,SE,4.6,-,N/A,,Clear,130,2012-11-19 12:34:00
7:54 AM,29.5,28.4,96,30.32,2.5,Calm,Calm,-,N/A,,Clear,0,2012-11-19 12:54:00
8:34 AM,29.7,28.2,94,30.32,2.0,Calm,Calm,-,N/A,,Clear,0,2012-11-19 13:34:00
8:54 AM,31.5,30.4,96,30.32,2.5,SSE,3.5,-,N/A,,Clear,150,2012-11-19 13:54:00
9:14 AM,32.5,31.8,97,30.32,3.0,SSE,3.5,-,N/A,,Clear,150,2012-11-19 14:14:00
9:34 AM,34.9,33.1,93,30.32,4.0,SSE,3.5,-,N/A,,Clear,160,2012-11-19 14:34:00
9:54 AM,37.4,34.0,87,30.32,5.0,SE,3.5,-,N/A,,Clear,140,2012-11-19 14:54:00
10:14 AM,39.4,34.3,82,30.32,7.0,SSE,4.6,-,N/A,,Clear,150,2012-11-19 15:14:00
10:34 AM,43.2,34.9,73,30.32,10.0,SSE,5.8,-,N/A,,Clear,160,2012-11-19 15:34:00
10:54 AM,44.6,34.5,68,30.32,10.0,South,3.5,-,N/A,,Clear,170,2012-11-19 15:54:00
11:14 AM,45.5,32.7,61,30.31,10.0,South,3.5,-,N/A,,Clear,170,2012-11-19 16:14:00
11:34 AM,46.4,33.3,60,30.30,10.0,SSE,6.9,-,N/A,,Clear,150,2012-11-19 16:34:00
11:54 AM,47.8,33.8,58,30.29,10.0,SSE,8.1,-,N/A,,Clear,150,2012-11-19 16:54:00
12:14 PM,48.9,34.3,57,30.28,10.0,SSE,4.6,-,N/A,,Clear,160,2012-11-19 17:14:00
12:34 PM,50.0,33.4,53,30.27,10.0,South,3.5,-,N/A,,Clear,180,2012-11-19 17:34:00
12:54 PM,50.9,34.7,54,30.26,10.0,SE,3.5,-,N/A,,Clear,140,2012-11-19 17:54:00
1:14 PM,52.0,34.7,52,30.25,10.0,SE,3.5,-,N/A,,Clear,140,2012-11-19 18:14:00
1:34 PM,52.7,33.4,48,30.25,10.0,SSE,5.8,-,N/A,,Clear,150,2012-11-19 18:34:00
1:54 PM,53.1,33.6,48,30.24,10.0,SSE,3.5,-,N/A,,Clear,160,2012-11-19 18:54:00
2:14 PM,54.0,32.9,45,30.24,10.0,SSE,3.5,-,N/A,,Clear,160,2012-11-19 19:14:00
2:34 PM,54.5,33.3,45,30.24,10.0,South,4.6,-,N/A,,Clear,170,2012-11-19 19:34:00
2:54 PM,54.5,34.2,46,30.22,10.0,SSE,6.9,-,N/A,,Clear,160,2012-11-19 19:54:00
3:14 PM,54.5,34.3,47,30.22,10.0,South,3.5,-,N/A,,Clear,170,2012-11-19 20:14:00
3:34 PM,54.7,35.1,48,30.21,10.0,SSE,5.8,-,N/A,,Clear,160,2012-11-19 20:34:00
3:54 PM,53.6,36.5,52,30.21,10.0,SSE,6.9,-,N/A,,Clear,160,2012-11-19 20:54:00
4:14 PM,52.7,37.4,56,30.21,10.0,SSE,5.8,-,N/A,,Clear,160,2012-11-19 21:14:00
4:34 PM,52.5,36.9,55,30.21,10.0,SSE,4.6,-,N/A,,Clear,160,2012-11-19 21:34:00
4:54 PM,50.9,36.9,59,30.20,10.0,SSE,5.8,-,N/A,,Clear,150,2012-11-19 21:54:00
5:14 PM,50.7,36.3,58,30.20,10.0,SSE,4.6,-,N/A,,Clear,150,2012-11-19 22:14:00
5:34 PM,49.8,35.6,58,30.20,10.0,SE,3.5,-,N/A,,Clear,130,2012-11-19 22:34:00
5:54 PM,49.6,34.5,56,30.19,10.0,ESE,3.5,-,N/A,,Clear,120,2012-11-19 22:54:00
6:14 PM,48.9,34.0,56,30.19,10.0,SE,3.5,-,N/A,,Clear,130,2012-11-19 23:14:00
6:34 PM,47.7,34.2,60,30.19,10.0,Calm,Calm,-,N/A,,Clear,0,2012-11-19 23:34:00
6:54 PM,46.4,34.3,63,30.19,10.0,SE,3.5,-,N/A,,Clear,130,2012-11-19 23:54:00
7:14 PM,45.9,34.3,64,30.19,10.0,SSE,3.5,-,N/A,,Clear,150,2012-11-20 00:14:00
7:34 PM,47.1,33.8,60,30.19,10.0,SSE,4.6,-,N/A,,Clear,160,2012-11-20 00:34:00
7:54 PM,46.9,33.4,59,30.19,10.0,SSE,5.8,-,N/A,,Clear,160,2012-11-20 00:54:00
8:14 PM,48.0,32.5,55,30.18,10.0,South,5.8,-,N/A,,Clear,170,2012-11-20 01:14:00
8:34 PM,46.8,33.3,59,30.18,10.0,South,6.9,-,N/A,,Clear,170,2012-11-20 01:34:00
8:54 PM,45.3,33.4,63,30.17,10.0,SSE,8.1,-,N/A,,Clear,160,2012-11-20 01:54:00
9:14 PM,45.5,33.1,62,30.17,10.0,SSE,6.9,-,N/A,,Clear,160,2012-11-20 02:14:00
9:34 PM,45.3,32.5,61,30.17,10.0,South,6.9,-,N/A,,Clear,170,2012-11-20 02:34:00
10:14 PM,44.6,32.0,61,30.16,10.0,SSE,6.9,-,N/A,,Clear,160,2012-11-20 03:14:00
10:34 PM,42.3,31.6,66,30.16,10.0,SSE,4.6,-,N/A,,Clear,160,2012-11-20 03:34:00
10:54 PM,40.5,30.7,68,30.15,10.0,South,6.9,-,N/A,,Clear,180,2012-11-20 03:54:00
11:14 PM,38.8,30.4,72,30.15,10.0,South,6.9,-,N/A,,Clear,180,2012-11-20 04:14:00
11:34 PM,39.9,31.1,71,30.15,10.0,South,4.6,-,N/A,,Mostly Cloudy,180,2012-11-20 04:34:00
11:54 PM,40.5,30.9,69,30.15,10.0,South,5.8,-,N/A,,Mostly Cloudy,170,2012-11-20 04:54:00